User: anonymous   Login
Location: Montreal
(45.5000°N, 73.5833°W)
Time: 13:26:55
(UTC-05:00)
Language:

Tiangong 1 - Orbit

View from above orbital plane
View from above orbital plane
View from above satellite
View from above satellite

Ground track
Ground track

The orbit data is extracted from the following two-line orbital elements,

1 37820U 11053A   18049.18704912  .00128291  15634-4  17885-3 0  9992
2 37820  42.7528 110.3382 0016894  52.4027   0.6747 16.04980688367118
Epoch (UTC): 18 February 2018 04:29:21
Eccentricity: 0.0016894
inclination: 42.7528°
perigee height: 249 km
apogee height: 272 km
right ascension of ascending node: 110.3382°
argument of perigee: 52.4027°
revolutions per day: 16.04980688
mean anomaly at epoch: 0.6747°
orbit number at epoch: 36711

The dashed part of the orbit path shows where the satellite is in the earth's shadow,  

DLR